Weather in Alferovo

Russia / Smolensk Oblast     55°09′07″N   33°47′20″E
temp.,
°C
wind,
m/s
gust,
m/s
humid.,
%
clouds,
%
prec.,
mm/h
press.,
hPa
HPBL,
m
29 november, mon
mon2900:000e2598100 0.7 1007189
03:00+1ese41189100 2.2 1004406
06:00+2se41197100 0.0 1002454
09:00+3se41198100 0.8 1000402
12:00+4se41397100 1.1 999453
15:00+5ese41394100 1.1 995459
18:00+4ese51297100 0.0 991509
21:00+4ese41198100 0.0 986432
30 november, tue
tue3000:00+4ene41098100 1.4 980354
03:00+4nne3998100 8.1 974508
06:00+4wsw4698100 3.3 972580
09:000sw81697100 8.6 973816
12:00−3sw91594100 3.7 974937
15:00−3wsw81694100 7.6 9751052
18:00−4w81693100 2.8 9791187
21:00−4w71693100 4.4 9831280
1 december, wed
wed100:00−4wsw71493100 1.6 9851188
03:00−4wsw61287100 1.8 988990
06:00−4wsw51188100 0.1 989910
09:00−5wsw51289100 0.1 991801
12:00−5wsw5119199 0.1 992764
15:00−5w4885100 0.2 993825
18:00−7wsw4109174 0.1 995435
21:00−8wsw31196100 0.1 997437
2 december, thu
thu200:00−10sw2798100 0.0 999141
03:00−8ssw3996100 0.1 999236
06:00−5s31192100 0.0 997408
09:00−4sse51395100 0.6 994644
12:00−2s51496100 2.5 992630
15:00+1sw51399100 4.1 991704
18:00+2ssw51499100 0.3 993777
21:00+2sw51398100 0.3 994898
3 december, fri
fri300:00+2sw61392100 0.2 9951084
03:00+1sw5128999 0.4 9971216
06:00−1sw51287100 0.1 999694
09:00−3sw41194100 0.1 1002517
12:00−1sw3992100 0.0 1003548
15:00−1ssw2593100 0.1 1003473
18:00−1sw1498100 0.3 1004279
21:00−2wnw1498100 0.9 1003221